Belize, Belize

1:24 PM CST on November 24, 2017 (GMT -0600)
Philip S W Goldson International

Weather History for MZBZ - July, 2014

Change the Weather History Date:

Friday, July 18, 2014

  Actual Average Record
Temperature  
Mean Temperature 86 °F -  
Max Temperature 90 °F 89 °F 90 °F (2014)
Min Temperature 82 °F 76 °F 70 °F (2012)
Cooling Degree Days 21    
Growing Degree Days 36 (Base 50)    
Moisture  
Dew Point 78 °F    
Average Humidity 74    
Maximum Humidity 84    
Minimum Humidity 55    
Precipitation  
Precipitation 0.00 in 0.28 in - ()
Sea Level Pressure  
Sea Level Pressure 29.95 in    
Wind  
Wind Speed 7 mph ()    
Max Wind Speed 12 mph    
Max Gust Speed -    
Visibility 8.6 miles    
Events Rain    
Averages and records for this station are not official NWS values.
T = Trace of Precipitation, MM = Missing Value Source: Averaged Metar Reports

Daily Weather History Graph

Daily Weather History Graph

Search for Another Location

Airport or City:

Trip Planner

Search our weather history database for the weather conditions in past years. The results will help you decide how hot, cold, wet, or windy it might be!

Date:

Astronomy

Jul. 18, 2014 Rise Set
Actual Time 5:27 AM CST 6:30 PM CST
Civil Twilight 5:04 AM CST 6:54 PM CST
Nautical Twilight 4:36 AM CST 7:22 PM CST
Astronomical Twilight 4:07 AM CST 7:50 PM CST
Moon 11:37 PM CST (7/18) 11:36 AM CST (7/18)
Length of Visible Light 13h 50m
Length of Day
13h 03m
Waning Gibbous, 54% of the Moon is Illuminated
Jul 18
Waning Gibbous
Jul 18
Last Quarter
Jul 26
New
Aug 3
First Quarter
Aug 10
Full

Hourly Weather History & Observations

Time (CST) Temp. Heat Index Dew Point Humidity Pressure Visibility Wind Dir Wind Speed Gust Speed Precip Events Conditions
12:00 AM 83 °F - 77 °F 77% 29.98 in 12 mi ESE 5.8 mph - -   Mostly Cloudy
3:00 AM 83 °F - 78 °F 79% 29.95 in 12 mi East 6.9 mph - -   Mostly Cloudy
5:00 AM 82.4 °F 90.9 °F 77.0 °F 84% 29.96 in 6.2 mi East 8.1 mph - N/A Rain Light Rain Showers
6:00 AM 83 °F - 77 °F 79% 29.97 in 12 mi East 4.6 mph - -   Partly Cloudy
6:00 AM 82.4 °F 90.9 °F 77.0 °F 84% 29.97 in 6.2 mi East 4.6 mph - N/A   Mostly Cloudy
7:00 AM 84.2 °F 96.1 °F 78.8 °F 84% 29.98 in 6.2 mi ESE 4.6 mph - N/A   Scattered Clouds
8:00 AM 86.0 °F 99.3 °F 78.8 °F 79% 29.98 in 6.2 mi ESE 8.1 mph - N/A   Mostly Cloudy
9:00 AM 86 °F - 78 °F 71% 29.99 in 14 mi ESE 8.1 mph - -   Mostly Cloudy
9:00 AM 86.0 °F 99.3 °F 78.8 °F 79% 29.98 in 6.2 mi ESE 8.1 mph - N/A   Mostly Cloudy
10:00 AM 87.8 °F 102.5 °F 78.8 °F 75% 29.97 in 6.2 mi ESE 8.1 mph - N/A   Scattered Clouds
11:00 AM 87.8 °F 102.5 °F 78.8 °F 75% 29.95 in 6.2 mi ESE 9.2 mph - N/A   Mostly Cloudy
12:00 PM 89 °F - 78 °F 64% 29.95 in 14 mi SE 8.1 mph - -   Partly Cloudy
12:00 PM 89.6 °F 104.7 °F 78.8 °F 70% 29.94 in 6.2 mi SE 8.1 mph - N/A   Scattered Clouds
1:00 PM 89.6 °F 104.7 °F 78.8 °F 70% 29.93 in 6.2 mi ESE 9.2 mph - N/A   Scattered Clouds
2:00 PM 89.6 °F 104.7 °F 78.8 °F 70% 29.92 in 6.2 mi ESE 9.2 mph - N/A   Partly Cloudy
3:00 PM 90 °F - 76 °F 55% 29.91 in 14 mi East 11.5 mph - -   Scattered Clouds
3:00 PM 89.6 °F 99.8 °F 75.2 °F 62% 29.91 in 6.2 mi East 11.5 mph - N/A   Partly Cloudy
4:00 PM 91.4 °F 107.2 °F 78.8 °F 66% 29.90 in 6.2 mi East 10.4 mph - N/A   Partly Cloudy
5:00 PM 87.8 °F 102.5 °F 78.8 °F 75% 29.91 in 6.2 mi East 11.5 mph - N/A   Scattered Clouds
6:00 PM 85 °F - 78 °F 74% 29.94 in 12 mi East 9.2 mph - -   Partly Cloudy
6:00 PM 86.0 °F 99.3 °F 78.8 °F 79% 29.93 in 6.2 mi East 9.2 mph - N/A   Scattered Clouds
9:00 PM 84 °F - 77 °F 74% 29.99 in 12 mi East 10.4 mph - -   Scattered Clouds